Tracking 35275 objects as of 8-Sep-2026
HD Live streaming from Space Station
objects crossing your sky now

STARLINK-36150

Track STARLINK-36150 now!
10-day predictions


NORAD ID: 67031
Int'l Code: 2025-294B
Launch date: December 11, 2025
Source: United States (US)
Launch site: AIR FORCE EASTERN TEST RANGE (AFETR)
Your satellite tracking list
Your tracking list is empty




NASA's NSSDC Master Catalog

Two Line Element Set (TLE):
1 67031U 25294B   26250.26371889  .00009148  00000-0  34152-3 0  9998
2 67031  43.0004  92.2121 0001040 274.8843  85.1890 15.27581544 42579
Source of the keplerian elements: AFSPC